Location: Houston
(29.7630°N, 95.3630°W)
Time: 03:36:53
(UTC-05:00)

ISS - All Passes

Search period start: 28 July 2016 00:00
Search period end: 07 August 2016 00:00
Orbit: 401 x 404 km, 51.6° (Epoch: 28 July)

Date Brightness Start Highest point End Pass type
(mag) Time Alt. Az. Time Alt. Az. Time Alt. Az.
28 Jul - 05:16:48 10° NW 05:20:02 83° SW 05:23:17 10° SE visible
28 Jul - 20:15:29 10° SSW 20:18:38 50° SE 20:21:48 10° NE daylight
28 Jul - 21:53:51 10° WNW 21:55:16 12° NW 21:56:41 10° N visible
29 Jul - 04:24:01 10° NNW 04:27:07 39° NE 04:30:11 10° ESE visible
29 Jul - 06:02:09 10° WSW 06:03:14 11° SW 06:04:16 10° SW visible
29 Jul - 19:23:18 10° S 19:25:50 21° SE 19:28:22 10° ENE daylight
29 Jul - 20:59:30 10° W 21:02:09 22° NW 21:04:47 10° NNE visible
30 Jul - 03:31:37 10° N 03:34:05 19° NE 03:36:30 10° E night (unlit)
30 Jul - 05:07:43 10° WNW 05:10:27 25° SW 05:13:12 10° S night (unlit)
30 Jul - 20:05:59 10° WSW 20:09:08 48° NW 20:12:18 10° NNE daylight
31 Jul - 02:40:07 10° NNE 02:40:55 11° NE 02:41:44 10° NE night (unlit)
31 Jul - 04:14:25 10° NW 04:17:38 63° SW 04:20:50 10° SSE night (unlit)
31 Jul - 19:13:00 10° SW 19:16:12 67° SE 19:19:26 10° NE daylight
31 Jul - 20:52:19 10° NW 20:52:56 10° NNW 20:53:33 10° NNW visible
01 Aug - 03:21:33 10° NNW 03:24:42 50° NE 03:27:52 10° ESE night (unlit)
01 Aug - 18:20:35 10° S 18:23:22 26° SE 18:26:10 10° ENE daylight
01 Aug - 19:57:22 10° W 19:59:46 19° NW 20:02:11 10° N daylight
02 Aug - 02:29:01 10° NNW 02:31:41 23° NE 02:34:22 10° E night (unlit)
02 Aug - 04:05:31 10° WNW 04:08:00 20° SW 04:10:28 10° S night (unlit)
02 Aug - 17:29:22 10° SSE 17:30:36 12° SE 17:31:50 10° ESE daylight
02 Aug - 19:03:40 10° WSW 19:06:43 38° NW 19:09:47 10° NNE daylight
03 Aug - 01:37:04 10° N 01:38:34 13° NE 01:40:04 10° ENE night (unlit)
03 Aug - 03:12:02 10° NW 03:15:11 48° SW 03:18:19 10° SSE night (unlit)
03 Aug - 18:10:31 10° SW 18:13:46 87° SE 18:17:01 10° NE daylight
04 Aug - 02:19:03 10° NW 02:22:17 65° NE 02:25:30 10° SE night (unlit)
04 Aug - 17:17:55 10° SSW 17:20:53 33° SE 17:23:52 10° ENE daylight
04 Aug - 18:55:16 10° WNW 18:57:22 16° NW 18:59:30 10° N daylight
05 Aug - 01:26:25 10° NNW 01:29:17 28° NE 01:32:08 10° ESE night (unlit)
05 Aug - 03:03:24 10° W 03:05:30 16° SW 03:07:37 10° SSW night (unlit)
05 Aug - 16:26:11 10° SSE 16:28:06 15° SE 16:30:00 10° E daylight
05 Aug - 18:01:21 10° WSW 18:04:17 30° NW 18:07:14 10° NNE daylight
06 Aug - 00:34:14 10° N 00:36:11 15° NE 00:38:07 10° ENE night (unlit)
06 Aug - 02:09:40 10° WNW 02:12:42 37° SW 02:15:44 10° SSE night (unlit)
06 Aug - 17:08:04 10° SW 17:11:17 73° NW 17:14:33 10° NE daylight
